Date String (YYYY-MM-DD hh:mm:ss) UTC,Instrument flags,Ambient pressure (hPa),Sample flow (lpm),Bypass flow (lpm),Sample temperature (°C),Ambient temperature (°C),ASC tube jacket temperature (°C),LED temperature (°C),Box temperature (°C),Sample RH (%),Span deviation,Mass concentration (μg/m³),Mass concentration (μg/m³),Mass concentration (μg/m³)
DateTimeUTC,F1_M11,P_M11,Q1_M11,Q2_M11,T1_M11,T2_M11,T3_M11,T4_M11,T5_M11,U1_M11,ZSPAN_M11,X2_M11,X0_M11,X1_M11
2022-04-17 12:00:00,,0822.3,4.99,0.00,23.7,22.9,00.0,32.7,25.5,14.4,0000.0,0007.02,0023.42,0004.36
2022-04-17 12:01:00,,0822.1,5.00,0.00,23.7,22.8,00.0,32.7,25.5,14.4,0000.0,0006.93,0022.10,0004.34
2022-04-17 12:02:00,,0822.1,5.01,0.00,23.7,22.9,00.0,32.7,25.5,14.4,0000.0,0006.92,0021.23,0004.32
2022-04-17 12:03:00,,0822.1,4.99,0.00,23.7,22.9,00.0,32.7,25.5,14.3,0000.0,0006.88,0021.23,0004.28
2022-04-17 12:04:00,,0822.2,5.00,0.00,23.7,23.0,00.0,32.7,25.6,14.2,0000.0,0006.80,0021.34,0004.23
2022-04-17 12:05:00,,0822.2,5.00,0.00,23.7,22.9,00.0,32.7,25.5,14.2,0000.0,0006.71,0020.90,0004.19
2022-04-17 12:06:00,,0822.2,5.00,0.00,23.7,22.9,00.0,32.7,25.5,14.2,0000.0,0006.70,0020.78,0004.16
2022-04-17 12:07:00,,0822.1,5.00,0.00,23.6,22.8,00.0,32.7,25.3,14.3,0000.0,0006.58,0021.29,0004.14
2022-04-17 12:08:00,,0822.2,5.00,0.00,23.6,22.8,00.0,32.7,25.3,14.3,0000.0,0006.52,0021.21,0004.10
2022-04-17 12:09:00,,0822.3,5.00,0.00,23.6,22.8,00.0,32.7,25.4,14.3,0000.0,0006.47,0020.70,0004.05
2022-04-17 12:10:00,,0822.3,4.99,0.00,23.6,22.8,00.0,32.7,25.5,14.3,0000.0,0006.37,0020.64,0004.01
2022-04-17 12:11:00,,0822.2,5.00,0.00,23.7,22.9,00.0,32.7,25.5,14.3,0000.0,0006.37,0020.81,0003.97
2022-04-17 12:12:00,,0822.2,5.00,0.00,23.7,22.9,00.0,32.7,25.5,14.2,0000.0,0006.42,0022.50,0003.93
2022-04-17 12:13:00,,0822.2,5.00,0.00,23.7,22.9,00.0,32.7,25.5,14.2,0000.0,0006.43,0023.06,0003.88
2022-04-17 12:14:00,,0822.2,5.00,0.00,23.7,22.9,00.0,32.6,25.5,14.2,0000.0,0006.45,0022.30,0003.87
2022-04-17 12:15:00,,0822.2,5.00,0.00,23.7,22.9,00.0,32.6,25.5,14.2,0000.0,0006.50,0021.86,0003.88
2022-04-17 12:16:00,,0822.2,5.00,0.00,23.7,22.9,00.0,32.6,25.5,14.2,0000.0,0006.57,0022.12,0003.88
2022-04-17 12:17:00,,0822.2,5.00,0.00,23.7,22.9,00.0,32.6,25.5,14.2,0000.0,0006.53,0023.25,0003.87
2022-04-17 12:18:00,,0822.2,5.00,0.00,23.7,22.9,00.0,32.6,25.5,14.2,0000.0,0006.58,0024.03,0003.87
2022-04-17 12:19:00,,0822.3,4.99,0.00,23.7,22.9,00.0,32.6,25.5,14.2,0000.0,0006.58,0024.39,0003.87
2022-04-17 12:20:00,,0822.4,5.01,0.00,23.7,22.9,00.0,32.6,25.5,14.2,0000.0,0006.61,0023.96,0003.89
2022-04-17 12:21:00,,0822.4,4.99,0.00,23.7,23.0,00.0,32.6,25.5,14.2,0000.0,0006.63,0024.50,0003.92
2022-04-17 12:22:00,,0822.2,5.00,0.00,23.7,23.0,00.0,32.6,25.5,14.2,0000.0,0006.60,0024.50,0003.95
2022-04-17 12:23:00,,0822.2,5.00,0.00,23.7,23.0,00.0,32.6,25.5,14.2,0000.0,0006.65,0023.82,0003.99
2022-04-17 12:24:00,,0822.2,5.00,0.00,23.7,23.0,00.0,32.6,25.5,14.2,0001.7,0006.66,0023.96,0004.01
2022-04-17 12:25:00,,0822.2,4.99,0.00,23.7,22.9,00.0,32.6,25.5,14.2,0000.1,0006.73,0024.28,0004.05
2022-04-17 12:26:00,,0822.1,5.00,0.00,23.7,22.9,00.0,32.6,25.5,14.2,0001.3,0006.76,0024.37,0004.08
2022-04-17 12:27:00,,0822.2,5.00,0.00,23.7,22.9,00.0,32.6,25.5,14.2,0002.6,0006.82,0025.46,0004.12
2022-04-17 12:28:00,,0822.2,5.00,0.00,23.7,22.9,00.0,32.6,25.5,14.2,0002.0,0006.86,0025.55,0004.14
2022-04-17 12:29:00,,0822.1,5.00,0.00,23.7,22.9,00.0,32.6,25.5,14.2,0002.5,0006.96,0024.19,0004.16
2022-04-17 12:30:00,,0822.1,5.00,0.00,23.6,22.9,00.0,32.6,25.5,14.2,0002.0,0007.11,0024.68,0004.20
2022-04-17 12:31:00,,0822.2,5.00,0.00,23.6,22.8,00.0,32.6,25.5,14.3,0001.0,0007.25,0025.15,0004.23
2022-04-17 12:32:00,,0822.3,4.99,0.00,23.6,22.8,00.0,32.6,25.5,14.3,0000.5,0007.33,0024.12,0004.24
2022-04-17 12:33:00,,0822.3,5.00,0.00,23.7,22.8,00.0,32.6,25.5,14.3,-000.7,0007.38,0023.67,0004.25
2022-04-17 12:34:00,,0822.3,5.00,0.00,23.7,22.8,00.0,32.6,25.5,14.3,-001.2,0007.41,0023.26,0004.26
2022-04-17 12:35:00,,0822.3,5.00,0.00,23.7,22.9,00.0,32.6,25.5,14.3,-000.6,0007.42,0022.83,0004.27
2022-04-17 12:36:00,,0822.3,5.00,0.00,23.7,22.9,00.0,32.6,25.5,14.2,0000.2,0007.41,0023.32,0004.27
2022-04-17 12:37:00,,0822.3,5.01,0.00,23.7,22.9,00.0,32.6,25.5,14.2,-000.1,0007.39,0023.48,0004.26
2022-04-17 12:38:00,,0822.4,5.00,0.00,23.7,22.9,00.0,32.6,25.5,14.2,0000.7,0007.36,0023.04,0004.25
2022-04-17 12:39:00,,0822.5,4.99,0.00,23.7,22.9,00.0,32.6,25.5,14.2,0000.2,0007.40,0023.19,0004.25
2022-04-17 12:40:00,,0822.6,5.01,0.00,23.7,22.9,00.0,32.6,25.4,14.3,0000.0,0007.30,0023.63,0004.25
2022-04-17 12:41:00,,0822.7,5.01,0.00,23.6,22.8,00.0,32.6,25.4,14.3,0000.0,0007.27,0023.77,0004.24
2022-04-17 12:42:00,,0822.6,5.00,0.00,23.6,22.8,00.0,32.6,25.4,14.4,0000.0,0007.21,0025.73,0004.23
2022-04-17 12:43:00,,0822.6,5.00,0.00,23.6,22.8,00.0,32.6,25.4,14.4,0000.0,0007.20,0027.05,0004.24
2022-04-17 12:44:00,,0822.6,5.00,0.00,23.6,22.9,00.0,32.6,25.5,14.4,0000.0,0007.23,0027.23,0004.25
2022-04-17 12:45:00,,0822.6,5.00,0.00,23.6,22.8,00.0,32.6,25.5,14.4,0000.0,0007.11,0028.18,0004.26
2022-04-17 12:46:00,,0822.7,5.01,0.00,23.6,22.9,00.0,32.6,25.5,14.5,0000.0,0007.10,0028.79,0004.26
2022-04-17 12:47:00,,0822.7,5.01,0.00,23.7,22.9,00.0,32.6,25.5,14.5,0000.0,0007.12,0028.41,0004.25
2022-04-17 12:48:00,,0822.5,5.00,0.00,23.7,22.9,00.0,32.6,25.5,14.4,0000.0,0007.23,0029.36,0004.27
2022-04-17 12:49:00,,0822.6,5.00,0.00,23.7,22.9,00.0,32.6,25.5,14.4,0000.0,0007.19,0030.59,0004.28
2022-04-17 12:50:00,,0822.6,4.99,0.00,23.7,22.9,00.0,32.6,25.5,14.4,0000.0,0007.27,0030.58,0004.29
2022-04-17 12:51:00,,0822.6,4.99,0.00,23.7,22.9,00.0,32.6,25.5,14.5,0000.0,0007.35,0030.47,0004.30
2022-04-17 12:52:00,,0822.6,5.00,0.00,23.7,22.9,00.0,32.6,25.5,14.5,0000.0,0007.34,0030.72,0004.31
2022-04-17 12:53:00,,0822.6,5.00,0.00,23.7,22.9,00.0,32.6,25.5,14.4,0000.0,0007.29,0029.40,0004.31
2022-04-17 12:54:00,,0822.5,5.00,0.00,23.7,22.9,00.0,32.6,25.5,14.4,0000.0,0007.35,0028.85,0004.30
2022-04-17 12:55:00,,0822.5,5.00,0.00,23.7,22.9,00.0,32.6,25.5,14.4,0000.0,0007.34,0029.01,0004.29
2022-04-17 12:56:00,,0822.5,5.00,0.00,23.7,22.9,00.0,32.6,25.5,14.4,0000.0,0007.42,0028.10,0004.29
2022-04-17 12:57:00,,0822.5,5.00,0.00,23.7,22.9,00.0,32.6,25.5,14.5,0000.0,0007.42,0028.16,0004.31
2022-04-17 12:58:00,,0822.5,5.00,0.00,23.7,22.9,00.0,32.6,25.5,14.5,0000.0,0007.49,0028.54,0004.32
2022-04-17 12:59:00,,0822.6,5.00,0.00,23.7,22.9,00.0,32.6,25.5,14.5,0000.0,0007.50,0027.78,0004.32
